sat.trackr.live / text

‹ back to catalog

STARLINK-35083

NORAD 65390 · 2025-191M

PAYLOAD ACTIVE UNKNOWN

§ Identity

Operator
Country
US
Launch date
2025-08-30
Launch site
AFWTR
Launch vehicle
Mass (kg)
RCS (m²)

Purposes: comms

External: N2YO · Heavens-Above · Gunter

§ Orbital elements

Epoch: 2026-05-25T02:32:10.854816Z

Period
95.64 min
Inclination
97.4505°
Eccentricity
0.0002290
Mean motion
15.05658518 rev/d
Perigee alt
547.9 km
Apogee alt
551.1 km
Semi-major
6,927.6 km
B*
2.1067e-4
RAAN
16.4086°
Arg perigee
72.5298°
Mean anomaly
287.6180°
Rev number
4,176

§ Raw data

STARLINK-350831 65390U 25191M   26145.10568119  .00002983  00000+0  21067-3 0  99902 65390  97.4505  16.4086 0002290  72.5298 287.6180 15.05658518 41760

JSON: /api/v1/satellites/65390 · /tle

For live sub-satellite position, see the globe view (requires WebGL).

§ Visibility from observer

Set your observer location to see the next 7 days of passes ≥ 10°. The values pass through the URL so the page stays shareable.

No JS? Fill the form by hand. The geolocation button needs JavaScript.